History for DABS

Tebessa, Algeria

Daily Weekly Monthly
Daily Summary for Friday, February 27, 2015
  Actual: Average: Record:
Temperature
Mean Temperature: 42 °F / 5 °C - :  
Max Temperature: 50 °F / 10 °C 60 °F / 16 °C - ()
Min Temperature: 33 °F / 0 °C 38 °F / 3 °C - ()
Degree Days
Heating Degree Days: 24    
Moisture
Dew Point 38 °F / 3 °C    
Average Humidity 79    
Maximum Humidity 93    
Minimum Humidity 60    
Precipitation
Precipitation 0.31 in / 8.0 cm 0.06 in / 1.4 cm - ()
Sea Level Pressure
Sea Level Pressure 29.93 in / 1013.40 hPa   
Wind
Wind Speed 12 mph / 19 km/h ()  
Max Wind Speed 22 mph / 35 km/h   
Max Gust Speed -   
Visibility 6.6 miles / 10.7 kilometers   
Events Rain   

Key: T is trace of precipitation, MM is missing value
Source: Averaged Metar Reports

Graphs

Observations

History Graphs Observations

Obs Go Here...

Features

Weather Apps

WunderRadio

Weather Underground Apps
Check out our wide variety of mobile and setup applications.

Weather Underground Applications

Top of Page

Copyright© 2015
Weather Underground, Inc.
Time(CET)TemperatureDew PointHumidity Sea Level Pressure Visibility Wind DirectionWind SpeedGust SpeedPrecipitationEvents Conditions
1:00 AM 38 °F / 3 °C 35 °F / 2 °C 86%  in /  hPa 5 miles / 8 kilometers WNW 21.9 mph / 35.2 km/h - -   Partly Cloudy
1:00 AM 37.4 °F / 3.0 °C 35.6 °F / 2.0 °C 93% 29.95 in / 1014 hPa 5.0 miles / 8.0 kilometers WNW 21.9 mph / 35.2 km/h - N/A   Mostly Cloudy
4:00 AM 38 °F / 3 °C 35 °F / 1 °C 82%  in /  hPa 6 miles / 10 kilometers WNW 11.5 mph / 18.5 km/h - -   Overcast
4:00 AM 37.4 °F / 3.0 °C 33.8 °F / 1.0 °C 87% 29.92 in / 1013 hPa 6.2 miles / 10.0 kilometers WNW 11.5 mph / 18.5 km/h - N/A   Mostly Cloudy
5:00 AM 37.4 °F / 3.0 °C 33.8 °F / 1.0 °C 87% 29.92 in / 1013 hPa 6.2 miles / 10.0 kilometers WNW 13.8 mph / 22.2 km/h - N/A   Mostly Cloudy
6:00 AM 37.4 °F / 3.0 °C 33.8 °F / 1.0 °C 87% 29.92 in / 1013 hPa 6.2 miles / 10.0 kilometers NW 6.9 mph / 11.1 km/h - N/A   Mostly Cloudy
7:00 AM 35 °F / 2 °C 30 °F / -1 °C 77%  in /  hPa 6 miles / 10 kilometers NW 6.9 mph / 11.1 km/h - -   Mostly Cloudy
7:00 AM 35.6 °F / 2.0 °C 30.2 °F / -1.0 °C 81% 29.92 in / 1013 hPa 6.2 miles / 10.0 kilometers NW 6.9 mph / 11.1 km/h - N/A   Scattered Clouds
9:00 AM 39.2 °F / 4.0 °C 32.0 °F / 0.0 °C 75% 29.95 in / 1014 hPa 6.2 miles / 10.0 kilometers NW 6.9 mph / 11.1 km/h - N/A   Scattered Clouds
10:00 AM 43 °F / 6 °C 34 °F / 1 °C 62%  in /  hPa 9 miles / 15 kilometers NW 11.5 mph / 18.5 km/h - -   Partly Cloudy
10:00 AM 42.8 °F / 6.0 °C 33.8 °F / 1.0 °C 70% 29.95 in / 1014 hPa 6.2 miles / 10.0 kilometers NW 11.5 mph / 18.5 km/h - N/A   Scattered Clouds
11:00 AM 48.2 °F / 9.0 °C 35.6 °F / 2.0 °C 62% 29.95 in / 1014 hPa 6.2 miles / 10.0 kilometers NW 13.8 mph / 22.2 km/h - N/A   Scattered Clouds
12:00 PM 46.4 °F / 8.0 °C 39.2 °F / 4.0 °C 76% 29.95 in / 1014 hPa 6.2 miles / 10.0 kilometers WNW 16.1 mph / 25.9 km/h - N/A   Scattered Clouds
1:00 PM 47 °F / 9 °C 37 °F / 3 °C 60%  in /  hPa 12 miles / 20 kilometers NW 13.8 mph / 22.2 km/h - -   Partly Cloudy
1:00 PM 48.2 °F / 9.0 °C 37.4 °F / 3.0 °C 66% 29.95 in / 1014 hPa 6.2 miles / 10.0 kilometers NW 13.8 mph / 22.2 km/h - N/A   Scattered Clouds
2:00 PM 50.0 °F / 10.0 °C 37.4 °F / 3.0 °C 62% 29.95 in / 1014 hPa 6.2 miles / 10.0 kilometers NW 18.4 mph / 29.6 km/h - N/A   Mostly Cloudy
3:00 PM 50.0 °F / 10.0 °C 37.4 °F / 3.0 °C 62% 29.92 in / 1013 hPa 6.2 miles / 10.0 kilometers NW 13.8 mph / 22.2 km/h - N/A   Mostly Cloudy
4:00 PM 49 °F / 9 °C 42 °F / 5 °C 68%  in /  hPa 12 miles / 20 kilometers NNW 11.5 mph / 18.5 km/h - -   Mostly Cloudy
4:00 PM 48.2 °F / 9.0 °C 41.0 °F / 5.0 °C 76% 29.92 in / 1013 hPa 6.2 miles / 10.0 kilometers NNW 11.5 mph / 18.5 km/h - N/A   Mostly Cloudy
5:00 PM 48.2 °F / 9.0 °C 42.8 °F / 6.0 °C 82% 29.92 in / 1013 hPa 6.2 miles / 10.0 kilometers NW 18.4 mph / 29.6 km/h - N/A   Mostly Cloudy
6:00 PM 46.4 °F / 8.0 °C 42.8 °F / 6.0 °C 87% 29.92 in / 1013 hPa 6.2 miles / 10.0 kilometers WNW 4.6 mph / 7.4 km/h - N/A   Mostly Cloudy
7:00 PM 46 °F / 8 °C 44 °F / 7 °C 90%  in /  hPa 6 miles / 10 kilometers WNW 6.9 mph / 11.1 km/h - -   Mostly Cloudy
7:00 PM 46.4 °F / 8.0 °C 44.6 °F / 7.0 °C 93% 29.92 in / 1013 hPa 6.2 miles / 10.0 kilometers WNW 6.9 mph / 11.1 km/h - N/A   Mostly Cloudy
8:00 PM 46.4 °F / 8.0 °C 42.8 °F / 6.0 °C 87% 29.92 in / 1013 hPa 6.2 miles / 10.0 kilometers WNW 6.9 mph / 11.1 km/h - N/A   Mostly Cloudy
9:00 PM 46.4 °F / 8.0 °C 42.8 °F / 6.0 °C 87% 29.92 in / 1013 hPa 6.2 miles / 10.0 kilometers NNW 11.5 mph / 18.5 km/h - N/A   Mostly Cloudy
10:00 PM 44 °F / 7 °C 42 °F / 6 °C 92%  in /  hPa 6 miles / 10 kilometers East 9.2 mph / 14.8 km/h - - Rain Light Rain
10:00 PM 44.6 °F / 7.0 °C 42.8 °F / 6.0 °C 93% 29.92 in / 1013 hPa 6.2 miles / 10.0 kilometers East 9.2 mph / 14.8 km/h - N/A   Mostly Cloudy
11:00 PM 42.8 °F / 6.0 °C 41.0 °F / 5.0 °C 93% 29.95 in / 1014 hPa 6.2 miles / 10.0 kilometers NW 11.5 mph / 18.5 km/h - N/A   Mostly Cloudy